Regional Weather Roundup
Issued by NWS

Home | Current Version | Previous Version | Graphics & Text | Print | Product List | Glossary On
Versions: 1 2 3 4 5 6 7 8 9 10 11 12 13 14 15 16 17 18 19 20 21 22 23 24 25 26 27 28 29 30 31 32 33 34 35 36 37 38 39 40 41 42 43 44 45 46 47 48 49 50
000
ASUS43 KTOP 191408
RWRKS

WEATHER ROUNDUP FOR KANSAS
NATIONAL WEATHER SERVICE GOODLAND KS
800 AM CST SUN FEB 19 2017

NOTE:  "FAIR" INDICATES FEW OR NO CLOUDS BELOW 12,000 FEET WITH NO
SIGNIFICANT WEATHER AND/OR OBSTRUCTIONS TO VISIBILITY.

KSZ001>006-013>018-027>032-041>047-191500-
NORTHWEST KANSAS

CITY           SKY/WX    TMP DP  RH WIND       PRES   REMARKS
GOODLAND       CLOUDY    46  36  68 S13       29.71R
HAYS           FOG       43  43 100 S6        29.84F VSB 1/2
HILL CITY      PTCLDY    47  46  97 CALM      29.81R FOG
RUSSELL        FOG       44  44 100 S14       29.84S VSB 1/4
$$

KSZ061>065-074>080-084>089-191500-
SOUTHWEST KANSAS

CITY           SKY/WX    TMP DP  RH WIND       PRES   REMARKS
DODGE CITY     CLOUDY    48  47  96 S10       29.85R FOG
ELKHART          N/A     42  34  73 S8          N/A
GARDEN CITY    FOG       44  44 100 S9        29.83R VSB<1/4
GREAT BEND     LGT RAIN  45  44  97 SE10      29.86F VSB<1/4
LIBERAL        CLOUDY    48  45  87 S12       29.84R
PRATT          FOG       46  46  99 S10       29.88R VSB<1/4
$$

KSZ066>073-081>083-090>101-191500-
SOUTHEAST KANSAS

CITY           SKY/WX    TMP DP  RH WIND       PRES   REMARKS
CHANUTE        FOG       44  43  96 SE8       29.97R VSB 1/4
COFFEYVILLE    CLOUDY    47  47 100 E5        29.96R FOG
HUTCHINSON     FOG       46  46 100 SE5       29.90R VSB 1/4
MEDICINE LODGE   N/A     47  46  97 SE5       29.89R
NEWTON         CLOUDY    45  45 100 SE8       29.92R FOG
PARSONS        CLOUDY    49  48  97 SE5       29.97R FOG
WICHITA INTL   FOG       49  49 100 SE9       29.91R VSB 1/8
WICHITA JABRA  FOG       48  48 100 SE8       29.91S VSB 3/4
WICHITA MCCONL FOG       49  49  99 S8        29.91R VSB 1/2
WINFIELD       FOG       52  51  97 SE9       29.93R VSB 3/4
$$

KSZ007>012-019>026-033>040-048>060-102>105-191500-
NORTHEAST KANSAS

CITY           SKY/WX    TMP DP  RH WIND       PRES   REMARKS
CONCORDIA      PTCLDY    47  47 100 S13       29.87R FOG
EMPORIA        FOG       44  44 100 S7        29.95R VSB<1/4
LAWRENCE       FOG       39  39 100 E3        29.96R VSB<1/4
MANHATTAN      MOCLDY    42  40  92 CALM      29.92R FOG
MARYSVILLE     MOCLDY    46  45  93 S7        29.91R
OLATHE IND     FOG       46  46 100 S8        29.97R VSB<1/4
OLATHE EXE     FOG      N/A N/A N/A SE5       29.97R VSB 1/4
SALINA         PTCLDY    47  45  93 S8        29.89S FOG
TOPEKA BILLARD FOG       40  39  97 CALM      29.94R VSB 1/4
TOPEKA FORBES  FOG       47  46  97 SE6       29.95R VSB 3/4
$$




USA.gov is the U.S. government's official web portal to all federal, state and local government web resources and services.